| time (UTC) | temp C | wind direction | speed KPH | gust KPH | rain 1hr cm | rain 24hr cm | rain mn cm | humidity % | barometer mb |
| 20260505070341 | 15 | 34 | 0.0 | 3.2 | 0.00 | 0.00 | 0.00 | 71 | 1004.9 |
| 20260505070108 | 14 | 48 | 0.0 | 17.7 | 0.00 | 0.00 | 0.00 | 71 | 1002.6 |
| 20260505065849 | 15 | 360 | 0.0 | 17.7 | 0.00 | 0.00 | 0.00 | 72 | 1004.7 |
| 20260505065410 | 15 | 33 | 1.6 | 16.1 | 0.00 | 0.00 | 0.00 | 72 | 1004.7 |
| 20260505064850 | 15 | 46 | 0.0 | 11.3 | 0.00 | 0.00 | 0.00 | 73 | 1004.5 |
| 20260505064502 | 15 | 25 | 0.0 | 11.3 | 0.00 | 0.00 | 0.00 | 74 | 1002.3 |
| 20260505064336 | 15 | 61 | 0.0 | 16.1 | 0.00 | 0.00 | 0.00 | 74 | 1004.4 |
| 20260505063820 | 15 | 33 | 0.0 | 16.1 | 0.00 | 0.00 | 0.00 | 75 | 1004.4 |
| 20260505063322 | 15 | 65 | 0.0 | 6.4 | 0.00 | 0.00 | 0.00 | 75 | 1004.4 |
| 20260505063050 | 15 | 13 | 0.0 | 3.2 | 0.00 | 0.00 | 0.00 | 75 | 1002.1 |
| 20260505062824 | 16 | 49 | 0.0 | 3.2 | 0.00 | 0.00 | 0.00 | 75 | 1004.2 |
| 20260505062315 | 16 | 50 | 0.0 | 6.4 | 0.00 | 0.00 | 0.00 | 75 | 1004.2 |
| 20260505061821 | 16 | 63 | 0.0 | 6.4 | 0.00 | 0.00 | 0.00 | 75 | 1004.2 |
| 20260505061520 | 16 | 40 | 0.0 | 6.4 | 0.00 | 0.00 | 0.00 | 75 | 1001.7 |
| 20260505061322 | 16 | 76 | 0.0 | 9.7 | 0.00 | 0.00 | 0.00 | 75 | 1003.7 |
| 20260505060821 | 16 | 51 | 0.0 | 9.7 | 0.00 | 0.00 | 0.00 | 75 | 1003.3 |
| 20260505060343 | 16 | 52 | 0.0 | 6.4 | 0.00 | 0.00 | 0.00 | 74 | 1003.6 |
| 20260505060033 | 16 | 38 | 0.0 | 6.4 | 0.00 | 0.00 | 0.00 | 74 | 1001.3 |
| 20260505055937 | 16 | 59 | 0.0 | 6.4 | 0.00 | 0.00 | 0.00 | 74 | 1003.5 |
| 20260505055411 | 16 | 36 | 0.0 | 0.0 | 0.00 | 0.00 | 0.00 | 73 | 1003.5 |
| 20260505054823 | 16 | 44 | 0.0 | 6.4 | 0.00 | 0.00 | 0.00 | 72 | 1003.3 |
| 20260505054542 | 16 | 12 | 0.0 | 6.4 | 0.00 | 0.00 | 0.00 | 71 | 1001.1 |
| 20260505054318 | 17 | 45 | 0.0 | 0.0 | 0.00 | 0.00 | 0.00 | 71 | 1003.2 |
| 20260505053841 | 17 | 41 | 0.0 | 1.6 | 0.00 | 0.00 | 0.00 | 70 | 1003.4 |
| 20260505053319 | 17 | 355 | 0.0 | 0.0 | 0.00 | 0.00 | 0.00 | 69 | 1003.4 |
| 20260505053052 | 17 | 22 | 0.0 | 0.0 | 0.00 | 0.00 | 0.00 | 68 | 1001.2 |
| 20260505052836 | 17 | 31 | 0.0 | 0.0 | 0.00 | 0.00 | 0.00 | 67 | 1003.3 |
| 20260505052330 | 17 | 36 | 0.0 | 0.0 | 0.00 | 0.00 | 0.00 | 65 | 1003.5 |
| 20260505051827 | 18 | 32 | 0.0 | 1.6 | 0.00 | 0.00 | 0.00 | 64 | 1003.5 |
| 20260505051551 | 18 | 19 | 0.0 | 1.6 | 0.00 | 0.00 | 0.00 | 63 | 1001.2 |
| 20260505051352 | 18 | 75 | 0.0 | 1.6 | 0.00 | 0.00 | 0.00 | 63 | 1003.3 |
| 20260505050831 | 18 | 68 | 0.0 | 1.6 | 0.00 | 0.00 | 0.00 | 61 | 1003.4 |
| 20260505050334 | 19 | 48 | 0.0 | 12.9 | 0.00 | 0.00 | 0.00 | 60 | 1003.4 |
| 20260505041611 | 22 | 46 | 0.0 | 0.0 | 0.00 | 0.00 | 0.00 | 68 | 1000.0 |
| 20260505041317 | 22 | 50 | 0.0 | 0.0 | 0.00 | 0.00 | 0.00 | 68 | 1002.3 |
| 20260505040823 | 22 | 31 | 0.0 | 0.0 | 0.00 | 0.00 | 0.00 | 67 | 1002.4 |
| 20260505040322 | 22 | 51 | 0.0 | 1.6 | 0.00 | 0.00 | 0.00 | 67 | 1002.6 |
| 20260505040006 | 22 | 38 | 0.0 | 1.6 | 0.00 | 0.00 | 0.00 | 67 | 1000.2 |
| 20260505035842 | 22 | 156 | 0.0 | 1.6 | 0.00 | 0.00 | 0.00 | 66 | 1002.4 |
| 20260505035410 | 22 | 109 | 0.0 | 0.0 | 0.00 | 0.00 | 0.00 | 66 | 1002.3 |
| 20260505034832 | 22 | 159 | 0.0 | 0.0 | 0.00 | 0.00 | 0.00 | 66 | 1002.3 |
| 20260505034547 | 22 | 153 | 0.0 | 1.6 | 0.00 | 0.00 | 0.00 | 66 | 999.9 |
| 20260505034332 | 22 | 155 | 0.0 | 1.6 | 0.00 | 0.00 | 0.00 | 66 | 1002.3 |
| 20260505033824 | 22 | 148 | 0.0 | 1.6 | 0.00 | 0.00 | 0.00 | 65 | 1002.2 |
| 20260505033358 | 22 | 139 | 0.0 | 6.4 | 0.00 | 0.00 | 0.00 | 65 | 1002.2 |
| 20260505033058 | 22 | 152 | 0.0 | 6.4 | 0.00 | 0.00 | 0.00 | 65 | 999.9 |
| 20260505032848 | 22 | 125 | 1.6 | 6.4 | 0.00 | 0.00 | 0.00 | 64 | 1002.3 |
| 20260505032332 | 22 | 138 | 0.0 | 3.2 | 0.00 | 0.00 | 0.00 | 63 | 1002.2 |
| 20260505031837 | 22 | 165 | 0.0 | 3.2 | 0.00 | 0.00 | 0.00 | 63 | 1002.3 |
| 20260505031604 | 22 | 161 | 0.0 | 0.0 | 0.00 | 0.00 | 0.00 | 62 | 1000.0 |
| 20260505031344 | 23 | 148 | 0.0 | 0.0 | 0.00 | 0.00 | 0.00 | 62 | 1002.1 |
| 20260505030821 | 23 | 136 | 0.0 | 1.6 | 0.00 | 0.00 | 0.00 | 61 | 1002.1 |
| 20260505030357 | 23 | 146 | 0.0 | 1.6 | 0.00 | 0.00 | 0.00 | 61 | 1002.2 |
| 20260505030042 | 23 | 152 | 0.0 | 3.2 | 0.00 | 0.00 | 0.00 | 61 | 1000.0 |
| 20260505025932 | 23 | 146 | 0.0 | 3.2 | 0.00 | 0.00 | 0.00 | 61 | 1002.1 |
| 20260505025343 | 23 | 163 | 0.0 | 1.6 | 0.00 | 0.00 | 0.00 | 60 | 1002.3 |
| 20260505024829 | 23 | 166 | 0.0 | 3.2 | 0.00 | 0.00 | 0.00 | 60 | 1002.2 |
| 20260505024514 | 23 | 148 | 0.0 | 8.0 | 0.00 | 0.00 | 0.00 | 59 | 999.8 |
| 20260505024335 | 23 | 149 | 0.0 | 8.0 | 0.00 | 0.00 | 0.00 | 59 | 1001.9 |
| 20260505023834 | 23 | 135 | 0.0 | 8.0 | 0.00 | 0.00 | 0.00 | 59 | 1002.0 |
| 20260505023333 | 23 | 143 | 0.0 | 1.6 | 0.00 | 0.00 | 0.00 | 59 | 1002.1 |
| 20260505023055 | 23 | 144 | 0.0 | 4.8 | 0.00 | 0.00 | 0.00 | 59 | 1000.0 |
| 20260505022824 | 23 | 205 | 0.0 | 4.8 | 0.00 | 0.00 | 0.00 | 59 | 1002.3 |
| 20260505022320 | 23 | 145 | 0.0 | 1.6 | 0.00 | 0.00 | 0.00 | 58 | 1002.2 |
| 20260505021823 | 23 | 181 | 0.0 | 1.6 | 0.00 | 0.00 | 0.00 | 58 | 1002.3 |
| 20260505021518 | 23 | 209 | 0.0 | 0.0 | 0.00 | 0.00 | 0.00 | 57 | 1000.1 |
| 20260505021324 | 23 | 170 | 0.0 | 0.0 | 0.00 | 0.00 | 0.00 | 57 | 1002.1 |
| 20260505020825 | 23 | 212 | 0.0 | 3.2 | 0.00 | 0.00 | 0.00 | 57 | 1002.0 |
| 20260505020338 | 23 | 155 | 0.0 | 3.2 | 0.00 | 0.00 | 0.00 | 56 | 1001.8 |
| 20260505020059 | 23 | 202 | 0.0 | 0.0 | 0.00 | 0.00 | 0.00 | 56 | 999.5 |
| 20260505015844 | 23 | 206 | 0.0 | 0.0 | 0.00 | 0.00 | 0.00 | 55 | 1001.9 |
| 20260505015328 | 24 | 160 | 0.0 | 1.6 | 0.00 | 0.00 | 0.00 | 55 | 1001.9 |
| 20260505014823 | 24 | 155 | 0.0 | 3.2 | 0.00 | 0.00 | 0.00 | 55 | 1001.7 |
| 20260505014510 | 23 | 146 | 0.0 | 3.2 | 0.00 | 0.00 | 0.00 | 54 | 999.3 |
| 20260505014327 | 24 | 157 | 0.0 | 3.2 | 0.00 | 0.00 | 0.00 | 54 | 1001.6 |
| 20260505013827 | 24 | 170 | 0.0 | 4.8 | 0.00 | 0.00 | 0.00 | 54 | 1001.6 |
| 20260505013335 | 24 | 170 | 0.0 | 4.8 | 0.00 | 0.00 | 0.00 | 53 | 1001.4 |
| 20260505013048 | 24 | 178 | 0.0 | 1.6 | 0.00 | 0.00 | 0.00 | 53 | 999.0 |
| 20260505012834 | 25 | 150 | 0.0 | 1.6 | 0.00 | 0.00 | 0.00 | 53 | 1001.2 |
| 20260505012321 | 25 | 175 | 0.0 | 6.4 | 0.00 | 0.00 | 0.00 | 52 | 1001.1 |
| 20260505011917 | 25 | 130 | 0.0 | 6.4 | 0.00 | 0.00 | 0.00 | 52 | 1001.1 |
| 20260505011537 | 25 | 157 | 0.0 | 6.4 | 0.00 | 0.00 | 0.00 | 52 | 998.6 |
| 20260505011345 | 25 | 170 | 0.0 | 6.4 | 0.00 | 0.00 | 0.00 | 51 | 1000.9 |
| 20260505010825 | 25 | 207 | 0.0 | 9.7 | 0.00 | 0.00 | 0.00 | 51 | 1000.8 |
| 20260505010339 | 25 | 157 | 1.6 | 9.7 | 0.00 | 0.00 | 0.00 | 50 | 1000.7 |
| 20260505010109 | 25 | 111 | 0.0 | 8.0 | 0.00 | 0.00 | 0.00 | 50 | 998.5 |
| 20260505005841 | 25 | 153 | 0.0 | 6.4 | 0.00 | 0.00 | 0.00 | 50 | 1000.8 |
| 20260505005340 | 25 | 177 | 1.6 | 6.4 | 0.00 | 0.00 | 0.00 | 50 | 1000.9 |
| 20260505004836 | 25 | 190 | 0.0 | 1.6 | 0.00 | 0.00 | 0.00 | 50 | 1000.9 |
| 20260505004604 | 25 | 184 | 0.0 | 1.6 | 0.00 | 0.00 | 0.00 | 49 | 998.6 |
| 20260505004328 | 26 | 185 | 0.0 | 1.6 | 0.00 | 0.00 | 0.00 | 49 | 1000.8 |
| 20260505003854 | 26 | 241 | 0.0 | 11.3 | 0.00 | 0.00 | 0.00 | 49 | 1000.7 |
| 20260505003343 | 26 | 175 | 0.0 | 11.3 | 0.00 | 0.00 | 0.00 | 49 | 1000.6 |
| 20260505003053 | 26 | 156 | 1.6 | 11.3 | 0.00 | 0.00 | 0.00 | 48 | 998.3 |
| 20260505002826 | 26 | 195 | 0.0 | 11.3 | 0.00 | 0.00 | 0.00 | 48 | 1000.4 |
| 20260505002327 | 26 | 146 | 1.6 | 11.3 | 0.00 | 0.00 | 0.00 | 48 | 1000.5 |
| 20260505001821 | 26 | 153 | 1.6 | 8.0 | 0.00 | 0.00 | 0.00 | 48 | 1000.6 |
| 20260505001514 | 26 | 81 | 1.6 | 8.0 | 0.00 | 0.00 | 0.00 | 48 | 998.4 |
| 20260505001321 | 26 | 136 | 1.6 | 8.0 | 0.00 | 0.00 | 0.00 | 47 | 1000.7 |
| 20260505000856 | 26 | 190 | 0.0 | 6.4 | 0.00 | 0.00 | 0.00 | 48 | 1000.8 |
| 20260505000337 | 26 | 189 | 1.6 | 4.8 | 0.00 | 0.00 | 0.00 | 47 | 1000.9 |
| 20260505000022 | 26 | 138 | 0.0 | 8.0 | 0.00 | 0.00 | 0.00 | 47 | 998.7 |
| 20260504235832 | 27 | 136 | 0.0 | 8.0 | 0.00 | 0.00 | 0.00 | 46 | 1001.0 |
| 20260504235335 | 27 | 217 | 1.6 | 8.0 | 0.00 | 0.00 | 0.00 | 46 | 1001.0 |
| 20260504234846 | 27 | 232 | 1.6 | 6.4 | 0.00 | 0.00 | 0.00 | 46 | 1001.0 |
| 20260504234518 | 27 | 154 | 0.0 | 8.0 | 0.00 | 0.00 | 0.00 | 45 | 998.8 |
| 20260504234316 | 27 | 146 | 0.0 | 8.0 | 0.00 | 0.00 | 0.00 | 45 | 1001.1 |
| 20260504233824 | 27 | 153 | 0.0 | 6.4 | 0.00 | 0.00 | 0.00 | 45 | 1001.0 |
| 20260504233357 | 28 | 161 | 0.0 | 8.0 | 0.00 | 0.00 | 0.00 | 44 | 1000.9 |
| 20260504233030 | 27 | 173 | 0.0 | 14.5 | 0.00 | 0.00 | 0.00 | 44 | 998.6 |
| 20260504232836 | 28 | 161 | 1.6 | 14.5 | 0.00 | 0.00 | 0.00 | 44 | 1000.9 |
| 20260504232339 | 28 | 155 | 3.2 | 14.5 | 0.00 | 0.00 | 0.00 | 43 | 1001.0 |
| 20260504231847 | 28 | 244 | 0.0 | 6.4 | 0.00 | 0.00 | 0.00 | 42 | 1001.0 |
| 20260504231506 | 28 | 177 | 0.0 | 8.0 | 0.00 | 0.00 | 0.00 | 42 | 998.7 |
| 20260504231405 | 28 | 156 | 0.0 | 8.0 | 0.00 | 0.00 | 0.00 | 42 | 1001.0 |
| 20260504230818 | 28 | 167 | 1.6 | 8.0 | 0.00 | 0.00 | 0.00 | 41 | 1000.9 |
| 20260504230322 | 28 | 248 | 0.0 | 8.0 | 0.00 | 0.00 | 0.00 | 41 | 1001.0 |
| 20260504230025 | 28 | 155 | 0.0 | 8.0 | 0.00 | 0.00 | 0.00 | 41 | 998.5 |
| 20260504225824 | 28 | 209 | 0.0 | 6.4 | 0.00 | 0.00 | 0.00 | 41 | 1000.8 |
| 20260504225324 | 28 | 166 | 1.6 | 9.7 | 0.00 | 0.00 | 0.00 | 41 | 1000.8 |
| 20260504224821 | 28 | 174 | 1.6 | 9.7 | 0.00 | 0.00 | 0.00 | 40 | 1000.8 |
| 20260504224550 | 28 | 201 | 0.0 | 9.7 | 0.00 | 0.00 | 0.00 | 40 | 998.5 |
| 20260504224319 | 29 | 151 | 1.6 | 9.7 | 0.00 | 0.00 | 0.00 | 40 | 1000.7 |
| 20260504223846 | 29 | 193 | 0.0 | 12.9 | 0.00 | 0.00 | 0.00 | 40 | 1000.8 |
| 20260504223332 | 29 | 138 | 1.6 | 16.1 | 0.00 | 0.00 | 0.00 | 38 | 1000.6 |
| 20260504223052 | 29 | 234 | 1.6 | 16.1 | 0.00 | 0.00 | 0.00 | 39 | 998.4 |
| 20260504222828 | 30 | 136 | 3.2 | 16.1 | 0.00 | 0.00 | 0.00 | 38 | 1000.6 |
| 20260504222326 | 30 | 194 | 0.0 | 16.1 | 0.00 | 0.00 | 0.00 | 37 | 1000.6 |
| 20260504221847 | 30 | 146 | 0.0 | 16.1 | 0.00 | 0.00 | 0.00 | 36 | 1000.6 |
| 20260504221551 | 29 | 162 | 0.0 | 16.1 | 0.00 | 0.00 | 0.00 | 35 | 998.4 |
| 20260504221319 | 30 | 202 | 0.0 | 4.8 | 0.00 | 0.00 | 0.00 | 37 | 1000.6 |
| 20260504220822 | 30 | 137 | 0.0 | 8.0 | 0.00 | 0.00 | 0.00 | 35 | 1000.7 |
| 20260504220326 | 30 | 149 | 0.0 | 9.7 | 0.00 | 0.00 | 0.00 | 34 | 1000.6 |
| 20260504220019 | 29 | 150 | 0.0 | 9.7 | 0.00 | 0.00 | 0.00 | 36 | 998.4 |
| 20260504215823 | 30 | 142 | 1.6 | 9.7 | 0.00 | 0.00 | 0.00 | 35 | 1000.7 |
| 20260504215331 | 30 | 217 | 0.0 | 9.7 | 0.00 | 0.00 | 0.00 | 35 | 1000.7 |
| 20260504214823 | 29 | 188 | 0.0 | 12.9 | 0.00 | 0.00 | 0.00 | 36 | 1000.9 |
| 20260504214608 | 29 | 201 | 0.0 | 12.9 | 0.00 | 0.00 | 0.00 | 34 | 998.6 |
| 20260504214323 | 29 | 190 | 0.0 | 17.7 | 0.00 | 0.00 | 0.00 | 37 | 1000.9 |
| 20260504213825 | 29 | 138 | 0.0 | 17.7 | 0.00 | 0.00 | 0.00 | 37 | 1001.0 |
| 20260504213322 | 29 | 132 | 3.2 | 17.7 | 0.00 | 0.00 | 0.00 | 37 | 1001.1 |
| 20260504213012 | 29 | 144 | 0.0 | 11.3 | 0.00 | 0.00 | 0.00 | 37 | 998.9 |
| 20260504212829 | 30 | 119 | 0.0 | 11.3 | 0.00 | 0.00 | 0.00 | 35 | 1001.2 |
| 20260504212323 | 30 | 224 | 0.0 | 6.4 | 0.00 | 0.00 | 0.00 | 35 | 1001.2 |
| 20260504211831 | 29 | 229 | 0.0 | 8.0 | 0.00 | 0.00 | 0.00 | 33 | 1001.3 |
| 20260504211537 | 29 | 250 | 0.0 | 8.0 | 0.00 | 0.00 | 0.00 | 33 | 999.2 |
| 20260504211335 | 29 | 138 | 1.6 | 8.0 | 0.00 | 0.00 | 0.00 | 33 | 1001.4 |
| 20260504210831 | 29 | 205 | 0.0 | 6.4 | 0.00 | 0.00 | 0.00 | 34 | 1001.5 |
| 20260504210323 | 29 | 126 | 0.0 | 8.0 | 0.00 | 0.00 | 0.00 | 35 | 1001.6 |
| 20260504210109 | 28 | 173 | 0.0 | 8.0 | 0.00 | 0.00 | 0.00 | 33 | 999.4 |
| 20260504205845 | 28 | 151 | 0.0 | 8.0 | 0.00 | 0.00 | 0.00 | 32 | 1001.7 |
| 20260504205335 | 28 | 188 | 0.0 | 1.6 | 0.00 | 0.00 | 0.00 | 33 | 1001.7 |
| 20260504204847 | 28 | 103 | 0.0 | 3.2 | 0.00 | 0.00 | 0.00 | 32 | 1001.9 |
| 20260504204608 | 28 | 153 | 0.0 | 4.8 | 0.00 | 0.00 | 0.00 | 33 | 999.7 |
| 20260504204334 | 28 | 126 | 0.0 | 12.9 | 0.00 | 0.00 | 0.00 | 34 | 1001.9 |
| 20260504203834 | 28 | 124 | 0.0 | 12.9 | 0.00 | 0.00 | 0.00 | 33 | 1002.1 |
| 20260504203325 | 28 | 136 | 0.0 | 8.0 | 0.00 | 0.00 | 0.00 | 33 | 1002.1 |
| 20260504203025 | 28 | 94 | 0.0 | 8.0 | 0.00 | 0.00 | 0.00 | 33 | 999.9 |
| 20260504202829 | 28 | 119 | 1.6 | 8.0 | 0.00 | 0.00 | 0.00 | 33 | 1002.2 |
| 20260504202331 | 28 | 227 | 0.0 | 4.8 | 0.00 | 0.00 | 0.00 | 36 | 1002.2 |
| 20260504201852 | 28 | 154 | 0.0 | 4.8 | 0.00 | 0.00 | 0.00 | 35 | 1002.3 |
| 20260504201611 | 28 | 160 | 0.0 | 4.8 | 0.00 | 0.00 | 0.00 | 36 | 1000.2 |
| 20260504201318 | 28 | 150 | 0.0 | 4.8 | 0.00 | 0.00 | 0.00 | 38 | 1002.4 |
| 20260504200821 | 28 | 168 | 1.6 | 6.4 | 0.00 | 0.00 | 0.00 | 37 | 1002.6 |
| 20260504200323 | 28 | 187 | 0.0 | 6.4 | 0.00 | 0.00 | 0.00 | 38 | 1002.6 |
| 20260504200043 | 27 | 192 | 0.0 | 6.4 | 0.00 | 0.00 | 0.00 | 38 | 1000.4 |
| 20260504195844 | 28 | 154 | 0.0 | 8.0 | 0.00 | 0.00 | 0.00 | 38 | 1002.8 |
| 20260504195319 | 28 | 227 | 1.6 | 8.0 | 0.00 | 0.00 | 0.00 | 36 | 1002.9 |
| 20260504194834 | 28 | 232 | 1.6 | 6.4 | 0.00 | 0.00 | 0.00 | 36 | 1003.0 |
| 20260504194552 | 27 | 194 | 0.0 | 6.4 | 0.00 | 0.00 | 0.00 | 36 | 1000.7 |
| 20260504194340 | 27 | 190 | 0.0 | 6.4 | 0.00 | 0.00 | 0.00 | 37 | 1003.0 |
| 20260504193838 | 27 | 221 | 1.6 | 6.4 | 0.00 | 0.00 | 0.00 | 37 | 1003.1 |
| 20260504193324 | 27 | 150 | 0.0 | 6.4 | 0.00 | 0.00 | 0.00 | 39 | 1003.0 |
| 20260504193107 | 27 | 143 | 0.0 | 6.4 | 0.00 | 0.00 | 0.00 | 38 | 1000.9 |
| 20260504192857 | 27 | 186 | 0.0 | 8.0 | 0.00 | 0.00 | 0.00 | 38 | 1003.1 |
| 20260504192329 | 27 | 186 | 1.6 | 8.0 | 0.00 | 0.00 | 0.00 | 36 | 1003.2 |
| 20260504191823 | 27 | 140 | 0.0 | 8.0 | 0.00 | 0.00 | 0.00 | 36 | 1003.2 |
| 20260504191513 | 27 | 153 | 0.0 | 8.0 | 0.00 | 0.00 | 0.00 | 36 | 1001.0 |
| 20260504191326 | 27 | 165 | 1.6 | 8.0 | 0.00 | 0.00 | 0.00 | 35 | 1003.2 |
| 20260504190844 | 28 | 182 | 0.0 | 1.6 | 0.00 | 0.00 | 0.00 | 36 | 1003.3 |
| 20260504190322 | 28 | 194 | 0.0 | 6.4 | 0.00 | 0.00 | 0.00 | 36 | 1003.4 |
| 20260504190015 | 27 | 161 | 0.0 | 6.4 | 0.00 | 0.00 | 0.00 | 37 | 1001.2 |
| 20260504185819 | 28 | 207 | 1.6 | 6.4 | 0.00 | 0.00 | 0.00 | 40 | 1003.4 |
| 20260504185334 | 27 | 205 | 0.0 | 1.6 | 0.00 | 0.00 | 0.00 | 38 | 1003.4 |
| 20260504184836 | 27 | 195 | 0.0 | 4.8 | 0.00 | 0.00 | 0.00 | 37 | 1003.5 |
| 20260504184536 | 27 | 214 | 0.0 | 4.8 | 0.00 | 0.00 | 0.00 | 37 | 1001.4 |
| 20260504184320 | 27 | 197 | 0.0 | 4.8 | 0.00 | 0.00 | 0.00 | 39 | 1003.6 |
| 20260504183843 | 27 | 149 | 0.0 | 3.2 | 0.00 | 0.00 | 0.00 | 38 | 1003.6 |
| 20260504183319 | 27 | 149 | 0.0 | 8.0 | 0.00 | 0.00 | 0.00 | 38 | 1003.6 |
| 20260504183046 | 27 | 183 | 1.6 | 8.0 | 0.00 | 0.00 | 0.00 | 39 | 1001.4 |
| 20260504182822 | 27 | 222 | 0.0 | 8.0 | 0.00 | 0.00 | 0.00 | 40 | 1003.6 |
| 20260504182319 | 26 | 143 | 0.0 | 6.4 | 0.00 | 0.00 | 0.00 | 41 | 1003.7 |
| 20260504181842 | 26 | 242 | 0.0 | 4.8 | 0.00 | 0.00 | 0.00 | 42 | 1003.8 |
| 20260504181601 | 26 | 277 | 0.0 | 4.8 | 0.00 | 0.00 | 0.00 | 41 | 1001.7 |
| 20260504181343 | 26 | 250 | 0.0 | 6.4 | 0.00 | 0.00 | 0.00 | 43 | 1003.9 |
| 20260504180837 | 26 | 274 | 1.6 | 6.4 | 0.00 | 0.00 | 0.00 | 44 | 1003.9 |
| 20260504180333 | 26 | 250 | 1.6 | 12.9 | 0.00 | 0.00 | 0.00 | 44 | 1003.9 |
| 20260504180020 | 26 | 188 | 0.0 | 12.9 | 0.00 | 0.00 | 0.00 | 43 | 1001.7 |
| 20260504175831 | 26 | 132 | 1.6 | 12.9 | 0.00 | 0.00 | 0.00 | 45 | 1003.9 |
| 20260504175342 | 26 | 204 | 1.6 | 8.0 | 0.00 | 0.00 | 0.00 | 45 | 1003.9 |
| 20260504174817 | 26 | 170 | 1.6 | 8.0 | 0.00 | 0.00 | 0.00 | 43 | 1003.9 |
| 20260504174523 | 25 | 194 | 0.0 | 8.0 | 0.00 | 0.00 | 0.00 | 45 | 1001.7 |
| 20260504174321 | 25 | 220 | 1.6 | 8.0 | 0.00 | 0.00 | 0.00 | 46 | 1003.9 |
| 20260504173846 | 26 | 144 | 1.6 | 8.0 | 0.00 | 0.00 | 0.00 | 44 | 1004.0 |
| 20260504173351 | 26 | 220 | 0.0 | 3.2 | 0.00 | 0.00 | 0.00 | 44 | 1004.1 |
| 20260504173021 | 25 | 201 | 0.0 | 8.0 | 0.00 | 0.00 | 0.00 | 46 | 1001.9 |
| 20260504172832 | 25 | 229 | 0.0 | 8.0 | 0.00 | 0.00 | 0.00 | 45 | 1004.0 |
| 20260504172340 | 25 | 220 | 0.0 | 9.7 | 0.00 | 0.00 | 0.00 | 44 | 1003.9 |
| 20260504171828 | 25 | 133 | 3.2 | 9.7 | 0.00 | 0.00 | 0.00 | 44 | 1004.1 |
| 20260504171551 | 25 | 200 | 0.0 | 8.0 | 0.00 | 0.00 | 0.00 | 47 | 1001.8 |
| 20260504171320 | 25 | 197 | 0.0 | 8.0 | 0.00 | 0.00 | 0.00 | 46 | 1004.1 |
| 20260504170850 | 25 | 194 | 0.0 | 3.2 | 0.00 | 0.00 | 0.00 | 47 | 1004.1 |
| 20260504170337 | 25 | 217 | 0.0 | 6.4 | 0.00 | 0.00 | 0.00 | 46 | 1004.1 |
| 20260504160339 | 22 | 209 | 1.6 | 12.9 | 0.00 | 0.00 | 0.00 | 52 | 1004.1 |
| 20260504150817 | 21 | 248 | 0.0 | 6.4 | 0.00 | 0.00 | 0.00 | 55 | 1003.9 |
| 20260504150320 | 20 | 266 | 0.0 | 9.7 | 0.00 | 0.00 | 0.00 | 56 | 1003.9 |
| 20260504141334 | 18 | 230 | 0.0 | 6.4 | 0.00 | 0.00 | 0.00 | 59 | 1004.1 |
| 20260504140839 | 18 | 209 | 1.6 | 8.0 | 0.00 | 0.00 | 0.00 | 59 | 1004.1 |
| 20260504140326 | 18 | 226 | 0.0 | 8.0 | 0.00 | 0.00 | 0.00 | 58 | 1004.2 |
| 20260504130317 | 17 | 220 | 1.6 | 8.0 | 0.00 | 0.00 | 0.00 | 62 | 1004.2 |
| 20260504130107 | 16 | 215 | 0.0 | 8.0 | 0.00 | 0.00 | 0.00 | 62 | 1002.2 |
| 20260504120133 | 15 | 211 | 0.0 | 6.4 | 0.00 | 0.00 | 0.00 | 63 | 1001.9 |
| 20260504110334 | 16 | 246 | 0.0 | 6.4 | 0.00 | 0.00 | 0.00 | 60 | 1003.9 |
| 20260504100330 | 17 | 179 | 0.0 | 6.4 | 0.00 | 0.00 | 0.00 | 57 | 1004.5 |
| 20260504081836 | 18 | 198 | 0.0 | 11.3 | 0.00 | 0.00 | 0.00 | 52 | 1005.0 |
| 20260504081528 | 18 | 234 | 0.0 | 11.3 | 0.00 | 0.00 | 0.00 | 52 | 1003.3 |
| 20260504081334 | 18 | 188 | 0.0 | 11.3 | 0.00 | 0.00 | 0.00 | 52 | 1005.1 |
| 20260504080837 | 18 | 166 | 1.6 | 6.4 | 0.00 | 0.00 | 0.00 | 52 | 1005.2 |
| 20260504080317 | 18 | 223 | 1.6 | 8.0 | 0.00 | 0.00 | 0.00 | 51 | 1005.2 |